Weather History for Coolangatta Airport Aws, Queensland

Change the Weather History Date:

Saturday, May 11, 2013

  Actual Average Record
Temperature  
Mean Temperature 64 °F -  
Max Temperature 68 °F - - ()
Min Temperature 59 °F - - ()
Degree Days  
Heating Degree Days 2    
Growing Degree Days 14 (Base 50)    
Moisture  
Dew Point 58 °F    
Average Humidity 82    
Maximum Humidity 94    
Minimum Humidity 64    
Precipitation  
Precipitation 0.55 in - - ()
Sea Level Pressure  
Sea Level Pressure 30.29 in    
Wind  
Wind Speed 7 mph ()    
Max Wind Speed 13 mph    
Max Gust Speed -    
Visibility 5.9 miles    
Events      
T = Trace of Precipitation, MM = Missing Value Source: Averaged Metar Reports

Daily Weather History Graph

Daily Weather History Graph

Search for Another Location

Airport:

Trip Planner

Search our weather history database for the weather conditions in past years. The results will help you decide how hot, cold, wet, or windy it might be!

Date:

Astronomy

May. 11, 2013 Rise Set
Actual Time 6:18 AM AEST 5:06 PM AEST
Civil Twilight 5:53 AM AEST 5:31 PM AEST
Nautical Twilight 5:25 AM AEST 5:59 PM AEST
Astronomical Twilight 4:57 AM AEST 6:27 PM AEST
Moon 7:05 AM AEST (5/11) 5:59 PM AEST (5/11)
Length of Visible Light 11h 37m
Length of Day
10h 48m
New Moon, 1% of the Moon is Illuminated
May 11
New Moon
May 18
First Quarter
May 25
Full
Jun 1
Last Quarter
Jun 9
New

Hourly Weather History & Observations

Time (AEST) Temp. Dew Point Humidity Pressure Visibility Wind Dir Wind Speed Gust Speed Precip Events Conditions
12:00 AM 61 °F 56 °F 78% 30.33 in - South 4.6 mph - -  
12:00 AM 60.8 °F 55.4 °F 82% 30.33 in 6.2 mi South 4.6 mph - N/A   Unknown
12:30 AM 60.8 °F 55.4 °F 82% 30.30 in 6.2 mi SSW 5.8 mph - N/A   Unknown
1:00 AM 62.6 °F 57.2 °F 82% 30.30 in 6.2 mi SSW 6.9 mph - N/A   Mostly Cloudy
1:30 AM 62.6 °F 55.4 °F 77% 30.30 in 6.2 mi SSW 9.2 mph - N/A   Unknown
2:00 AM 60.8 °F 55.4 °F 82% 30.27 in 6.2 mi South 6.9 mph - N/A   Unknown
2:30 AM 62.6 °F 55.4 °F 77% 30.27 in 6.2 mi South 5.8 mph - N/A   Unknown
3:00 AM 62 °F 55 °F 72% 30.28 in - SSW 6.9 mph - -  
3:00 AM 62.6 °F 55.4 °F 77% 30.27 in 6.2 mi SSW 6.9 mph - N/A   Unknown
3:30 AM 60.8 °F 55.4 °F 82% 30.27 in 6.2 mi SSW 4.6 mph - N/A   Unknown
4:00 AM 59.0 °F 55.4 °F 88% 30.27 in 6.2 mi South 4.6 mph - N/A   Scattered Clouds
4:30 AM 62.6 °F 57.2 °F 82% 30.27 in 6.2 mi SSW 11.5 mph - N/A   Overcast
5:00 AM 60.8 °F 57.2 °F 88% 30.27 in 6.2 mi SW 9.2 mph - N/A   Overcast
5:30 AM 60.8 °F 57.2 °F 88% 30.27 in 6.2 mi SSW 11.5 mph - N/A   Mostly Cloudy
6:00 AM 62 °F 57 °F 80% 30.29 in - SSW 10.4 mph - -  
6:00 AM 62.6 °F 57.2 °F 82% 30.27 in 6.2 mi SSW 10.4 mph - N/A   Scattered Clouds
6:30 AM 62.6 °F 57.2 °F 82% 30.27 in 6.2 mi SSW 10.4 mph - N/A   Scattered Clouds
7:00 AM 62.6 °F 59.0 °F 88% 30.30 in 6.2 mi SSW 10.4 mph - N/A   Scattered Clouds
7:30 AM 64.4 °F 59.0 °F 83% 30.30 in 6.2 mi SSW 9.2 mph - N/A   Unknown
8:00 AM 64.4 °F 57.2 °F 77% 30.30 in 6.2 mi SSW 12.7 mph - N/A   Unknown
9:00 AM 63 °F 60 °F 89% 30.33 in - SSW 10.4 mph - -   Overcast
9:02 AM 62.6 °F 60.8 °F 94% 30.33 in 6.2 mi SSW 10.4 mph - N/A   Overcast
9:30 AM 66.2 °F 62.6 °F 88% 30.33 in 6.2 mi South 9.2 mph - N/A   Overcast
10:00 AM 68.0 °F 60.8 °F 78% 30.33 in 6.2 mi SSW 9.2 mph - N/A   Scattered Clouds
10:30 AM 66.2 °F 60.8 °F 83% 30.33 in 3.7 mi South 10.4 mph - N/A   Mostly Cloudy
11:00 AM 62.6 °F 60.8 °F 94% 30.33 in 5.6 mi South 10.4 mph - N/A   Overcast
12:00 PM 64 °F 62 °F 92% 30.31 in 2 mi SSE 8.1 mph - -   Overcast
12:00 PM 64.4 °F 62.6 °F 94% 30.30 in 2.2 mi SSE 8.1 mph - N/A   Overcast
1:00 PM 66.2 °F 64.4 °F 94% 30.27 in 6.2 mi South 5.8 mph - N/A   Overcast
1:30 PM 64.4 °F 62.6 °F 94% 30.27 in 6.2 mi SSW 11.5 mph - N/A   Overcast
2:00 PM 64.4 °F 62.6 °F 94% 30.24 in 6.2 mi SSW 9.2 mph - N/A   Overcast
2:30 PM 66.2 °F 62.6 °F 88% 30.24 in 6.2 mi SSW 8.1 mph - N/A   Overcast
3:00 PM 66 °F 62 °F 82% 30.26 in - SSW 9.2 mph - -   Overcast
3:00 PM 66.2 °F 62.6 °F 88% 30.24 in 6.2 mi South 9.2 mph - N/A   Overcast
3:30 PM 66.2 °F 60.8 °F 83% 30.24 in 6.2 mi South 5.8 mph - N/A   Overcast
4:00 PM 66.2 °F 60.8 °F 83% 30.24 in 6.2 mi SSW 6.9 mph - N/A   Overcast
4:30 PM 66.2 °F 60.8 °F 83% 30.24 in 6.2 mi South 9.2 mph - N/A   Overcast
5:00 PM 66.2 °F 59.0 °F 78% 30.24 in 6.2 mi SSW 9.2 mph - N/A   Mostly Cloudy
5:30 PM 66.2 °F 59.0 °F 78% 30.27 in 6.2 mi South 9.2 mph - N/A   Overcast
6:00 PM 65 °F 58 °F 73% 30.28 in - South 6.9 mph - -   Overcast
6:00 PM 66.2 °F 59.0 °F 78% 30.27 in 6.2 mi South 6.9 mph - N/A   Overcast
6:30 PM 64.4 °F 57.2 °F 77% 30.27 in 6.2 mi South 8.1 mph - N/A   Mostly Cloudy
7:00 PM 64.4 °F 57.2 °F 77% 30.27 in 6.2 mi South 8.1 mph - N/A   Scattered Clouds
7:30 PM 64.4 °F 57.2 °F 77% 30.27 in 6.2 mi SSW 9.2 mph - N/A   Scattered Clouds
8:00 PM 64.4 °F 57.2 °F 77% 30.30 in 6.2 mi South 9.2 mph - N/A   Mostly Cloudy
8:30 PM 64.4 °F 55.4 °F 73% 30.30 in 6.2 mi South 8.1 mph - N/A   Scattered Clouds
9:00 PM 64 °F 55 °F 64% 30.31 in - South 9.2 mph - -   Overcast
9:00 PM 64.4 °F 55.4 °F 73% 30.30 in 6.2 mi South 9.2 mph - N/A   Mostly Cloudy
9:30 PM 62.6 °F 53.6 °F 72% 30.30 in 6.2 mi South 8.1 mph - N/A   Scattered Clouds
10:00 PM 62.6 °F 53.6 °F 72% 30.30 in 6.2 mi SSW 8.1 mph - N/A   Scattered Clouds
11:00 PM 60.8 °F 59.0 °F 94% 30.30 in 6.2 mi SSW 9.2 mph - N/A   Mostly Cloudy
11:30 PM 60.8 °F 57.2 °F 88% 30.30 in 6.2 mi SW 6.9 mph - N/A   Scattered Clouds